Airfield :
LOGIN :

Register | Disclaimer

   EN    FR    IT 

 










Legend :    VFR   Marginal VFR   IFR   Intensive IFR   Very Intensive IFR
Visi :
Ceiling :
>= 8 km
>= 3000ft
5 to 8 km
1000 to 3000 ft
1500m to 5 km
500 to 1000 ft
800 to 1500m
200 to 500 ft
< 800m
< 200 ft
Symbols :   Thunderstorms  Fog  Heavy snow  Heavy precipitations  Wind > 20 kt
SIGMETs :     Misc.  Thunderstorms  Icing  Turbulence  Mountain Waves  Volcanic Ashes







- Airport Elevation : 121 ft
- IATA code : HUY
- Download approach charts


EGNJ - Humberside

CURRENT METAR :
  • 211150Z 17008KT 120V200 9999 SCT035 20/12 Q1022

EXPIRED METARs :
  • 211050Z 17009KT 140V210 9999 FEW032 20/12 Q1022
  • 211020Z 16008KT 120V200 9999 FEW030 20/12 Q1022
  • 210950Z 15009KT 9999 FEW030 19/11 Q1022
  • 210920Z 12006KT 080V160 CAVOK 19/11 Q1022

TAF TAF EGNJ
Valid from the 21 at 12:00 until the 21 at 21:00 UTC


211102Z 2112/2121 17007KT 9999 SCT030
PROB30
TEMPO 2117/2121 8000 -RA
ATIS : +44 1652 682 020
No reported NOTAMs for that airfield.



MET'MAP, your aeronautical weather chart ! - Copyright ORBIFLY December 2007 - Disclaimer

ORBIFLY MET'MAP TEAM :

Programming & Development : Alexandra Zaïnal
Concept & Development : Baudouin d'Aumeries
Co-Development & Prog : Marc-Olivier Méhu
Technical & hardware support : Manuel Goepfert

Contact : metmap@orbifly.com




SOURCES & CREDITS :

   NOAA